• MPC Preparation (Info)

  • MPEC 1994-M04 : 1994 LC1

    The following Minor Planet Electronic Circular may be linked-to from your own Web pages, but must not otherwise be redistributed electronically.

    A form allowing access to any MPEC is at the bottom of this page.


    Read MPEC 1994-M03 Read MPEC 1994-M05


    M.P.E.C. 1994-M04                                Issued 1994 June 20, 21:39 UT
    
         The Minor Planet Electronic Circulars contain information on unusual
             minor planets and routine data on comets.  They are published
       on behalf of Commission 20 of the International Astronomical Union by the
              Minor Planet Center, Smithsonian Astrophysical Observatory,
                              Cambridge, MA 02138, U.S.A.
    
              MARSDEN@CFA or WILLIAMS@CFA (.HARVARD.EDU, .SPAN or .BITNET)
    
                                       1994 LC1
    
    Discovered 1994 June 15 by G. J. Garradd at Siding Spring.
    
    Available observations:
         J94L01C*FA1994 06 15.68738 21 31 02.98 -45 03 03.5          18.5 V      413
         J94L01C FA1994 06 15.74988 21 31 12.63 -45 03 34.4                      413
         J94L01C  C1994 06 17.72922 21 36 22.06 -45 19 11.3                      413
         J94L01C  C1994 06 17.73225 21 36 22.50 -45 19 12.6                      413
         J94L01C  C1994 06 17.73523 21 36 22.92 -45 19 14.0                      413
         J94L01C tC1994 06 18.46133 21 38 17.21 -45 24 40.4                      413
         J94L01C tC1994 06 18.46337 21 38 17.46 -45 24 41.4                      413
         J94L01C  C1994 06 18.62626 21 38 42.48 -45 26 04.2                      413
         J94L01C  C1994 06 18.62826 21 38 42.78 -45 26 05.3                      413
         J94L01C  C1994 06 20.53185 21 43 38.96 -45 40 22.3                      413
         J94L01C  C1994 06 20.53480 21 43 39.39 -45 40 23.9                      413
         J94L01C  C1994 06 20.67613 21 44 00.69 -45 41 32.2                      413
         J94L01C  C1994 06 20.67931 21 44 01.15 -45 41 33.7                      413
         J94L01C  C1994 06 20.81056 21 44 20.59 -45 42 31.6                      413
         J94L01C  C1994 06 20.81308 21 44 20.95 -45 42 33.0                      413
    
    Observer details:
    413 Siding Spring Observatory.  Observers M. Hartley, R. H. McNaught,
        G. J. Garradd, D. J. Asher, D. I Steel.  Measurers R. H. McNaught,
        G. J. Garradd.  U.K. Schmidt, 1.0-m reflector + CCD.
    
    Orbital elements:
    1994 LC1
    Epoch 1994 June 17.0 TT = JDT 2449520.5                 Williams
    M 345.33772              (2000.0)            P               Q
    n   0.21292077     Peri.  315.14284     +0.87069204     +0.48834540
    a   2.7775211      Node    15.91791     -0.36989066     +0.72848650
    e   0.5166757      Incl.   12.30107     -0.32415470     +0.48044374
    P   4.63           H    17.0          G   0.15
    From 15 observations 1994 June 15-20.
    
    Ephemeris:
    1994 LC1                 a,e,i = 2.78, 0.52, 12                  q = 1.3424
    Date    TT    R. A. (2000) Decl.     Delta      r     Elong.  Phase     V
    1994 06 17    21 34.47   -45 13.4    0.667    1.523   128.4    31.5    18.4
    1994 06 27    22 00.13   -46 25.1    0.596    1.478   131.0    31.3    18.1
    1994 07 07    22 24.20   -47 17.6    0.536    1.438   133.2    31.0    17.8
    1994 07 17    22 45.19   -47 40.5    0.486    1.404   135.3    30.6    17.5
    1994 07 27    23 01.64   -47 21.2    0.445    1.377   137.6    29.8    17.2
    1994 08 06    23 12.24   -46 07.4    0.412    1.357   140.3    28.5    17.0
    1994 08 16    23 16.59   -43 43.4    0.388    1.346   143.8    26.4    16.8
    1994 08 26    23 15.83   -39 57.0    0.374    1.342   147.9    23.5    16.6
    1994 09 05    23 12.05   -34 48.6    0.372    1.348   151.9    20.7    16.5
    1994 09 15    23 07.96   -28 36.2    0.384    1.361   154.0    18.9    16.6
    1994 09 25    23 05.78   -21 57.5    0.412    1.383   152.9    19.3    16.8
    1994 10 05    23 06.55   -15 32.1    0.457    1.411   148.8    21.5    17.1
    1994 10 15    23 10.61   -09 45.3    0.519    1.447   143.2    24.4    17.5
    1994 10 25    23 17.69   -04 46.5    0.597    1.488   137.0    27.1    18.0
    1994 11 04    23 27.29   -00 33.1    0.689    1.534   130.8    29.3    18.4
    1994 11 14    23 38.98   +03 02.8    0.795    1.584   124.8    30.9    18.8
    1994 11 24    23 52.31   +06 09.6    0.913    1.637   119.0    31.9    19.2
    1994 12 04    00 06.90   +08 54.1    1.042    1.693   113.3    32.3    19.6
    1994 12 14    00 22.52   +11 22.2    1.180    1.751   107.7    32.4    19.9
    1994 12 24    00 38.94   +13 37.5    1.328    1.811   102.2    32.1    20.3
    1995 01 03    00 55.98   +15 42.6    1.483    1.872    96.7    31.4    20.6
    1995 01 13    01 13.56   +17 39.4    1.644    1.934    91.3    30.6    20.8
    1995 01 23    01 31.56   +19 28.8    1.809    1.996    85.9    29.5    21.1
    
    Gareth V. Williams                                            M.P.E.C. 1994-M04
    

    Read MPEC 1994-M03 Read MPEC 1994-M05


    MPEC number:

    Enter an MPEC number in one of the following forms:

    • 1997-B01 (the full form)
    • J97B01 (the packed version of the full form)
    • B01 (the abbreviated form)